Theta_e
346 346 347 348 348 347 346 346 346 348 348 348 348 348 347 347 347 346 345 344 344 344 345 345 343 343 343 344 345 347 346 345 345 344 344 345 344 344 344 344 344 343 342 340 339 340 339 338 338 339 342 341 342 340 339 339 338 338 336 337 335 336
345 346 347 349 348 347 346 346 346 345 346 346 347 347 346 347 346 345 344 343 346 344 343 344 346 344 343 344 343 345 345 345 344 344 345 345 344 344 344 343 344 343 342 340 340 336 337 339 339 339 339 339 339 337 339 340 339 337 335 335 336 338
345 346 347 347 347 348 346 345 346 345 345 346 348 346 345 344 344 343 344 345 347 346 343 343 344 343 344 343 343 344 344 344 344 345 344 344 343 344 344 343 343 343 341 341 338 334 334 334 335 339 339 338 334 336 339 340 340 338 334 334 334 340
345 346 346 346 347 346 346 347 346 345 345 346 345 345 343 342 341 341 341 345 346 343 343 344 345 346 343 343 343 344 344 344 344 344 344 342 342 343 343 343 343 342 340 338 333 331 330 332 331 334 334 334 334 336 340 337 339 336 334 336 336 340
346 345 344 346 346 345 346 345 345 344 344 344 344 345 343 340 339 340 342 346 343 342 341 340 343 343 342 343 342 342 342 342 342 342 343 341 340 339 341 339 339 339 335 333 330 330 331 335 335 332 330 331 333 337 339 339 338 336 333 334 337 340
345 345 345 345 345 345 347 344 344 345 346 343 343 345 344 342 340 340 339 341 342 340 340 341 344 343 343 343 342 338 339 340 341 339 343 339 342 341 339 338 337 334 333 333 332 333 337 336 333 334 330 331 336 340 339 337 336 336 334 335 338 340
342 343 345 345 345 345 344 345 345 345 343 343 345 342 342 343 341 340 340 340 338 340 341 341 338 339 342 341 340 341 340 339 340 341 340 338 339 341 341 338 338 336 334 333 332 334 335 335 334 332 331 332 333 336 338 336 339 335 334 335 339 340
339 340 340 342 343 343 345 345 345 344 344 346 344 343 344 342 340 340 341 340 341 341 340 341 339 339 340 341 340 342 340 335 337 338 338 337 337 338 339 337 336 336 335 331 331 331 332 331 334 334 333 331 333 333 335 336 336 336 334 334 338 340
335 338 339 337 341 342 343 343 342 342 342 343 342 344 343 343 339 341 341 339 340 340 339 337 338 340 342 341 342 339 336 336 338 339 339 338 338 335 335 333 334 335 334 331 330 331 330 330 333 334 332 329 333 333 336 338 340 336 334 334 336 339
331 331 332 337 339 339 342 341 341 342 340 342 341 341 339 340 344 340 337 338 340 338 340 337 338 341 339 339 340 339 338 337 337 340 341 339 338 336 335 333 332 333 331 330 328 329 330 329 329 332 331 328 331 329 335 334 337 336 336 335 334 339
331 339 329 331 336 337 338 338 338 341 340 338 339 339 339 340 343 341 338 336 337 340 342 342 341 340 338 339 338 336 335 338 338 338 340 339 340 336 337 338 336 334 332 334 330 330 329 327 329 329 329 328 327 328 331 333 334 336 334 336 334 336
334 340 347 331 337 334 338 334 338 336 336 336 337 338 338 338 342 343 339 337 340 339 339 340 338 336 338 337 335 335 336 336 335 338 339 338 338 338 337 334 333 339 333 334 330 328 332 330 329 329 329 327 327 326 327 333 332 333 333 335 335 333
332 342 336 336 334 335 342 333 341 335 336 335 336 337 335 334 340 338 343 342 340 339 340 339 337 334 334 336 336 336 335 334 335 339 339 339 340 338 336 339 336 335 332 331 329 327 328 333 327 328 328 326 326 325 325 329 330 333 333 334 335 334
332 330 338 332 344 334 335 333 340 337 339 339 334 333 336 335 337 339 339 340 342 341 341 342 336 334 335 334 334 333 336 336 338 339 340 342 339 336 338 337 332 333 331 325 326 327 327 328 327 328 328 329 330 332 329 325 329 331 332 332 333 335
338 335 334 333 333 335 338 335 331 334 335 345 338 336 338 334 336 337 338 340 336 334 338 336 338 337 335 334 335 334 337 337 338 337 335 338 338 337 336 335 331 329 330 326 323 329 325 326 327 325 330 334 329 328 330 329 330 331 331 332 335 333
337 338 338 339 338 337 339 337 335 334 336 339 340 334 338 339 337 338 339 337 337 337 336 335 337 337 336 335 335 335 335 336 337 336 334 334 337 336 336 336 332 331 330 323 323 322 324 324 327 329 332 333 332 331 330 330 331 329 328 330 330 333
337 338 339 339 338 339 340 335 331 335 330 332 339 339 333 336 337 338 338 338 337 340 334 336 336 334 334 334 338 336 336 336 335 338 337 337 336 338 337 334 337 333 333 331 328 324 326 326 328 331 333 331 332 332 332 331 330 331 330 331 332 329
339 339 340 338 336 341 333 336 335 330 335 331 332 330 331 331 333 335 338 338 337 337 338 337 337 337 334 334 334 336 335 335 335 335 334 334 334 336 335 334 334 337 332 330 330 329 328 329 329 332 332 330 332 332 332 332 332 333 330 327 331 333
339 339 338 337 339 334 336 330 332 330 330 333 329 333 334 330 331 332 333 337 337 338 338 338 339 339 336 336 335 334 333 334 334 333 331 331 332 334 334 334 332 332 332 331 330 329 330 329 327 329 328 332 331 329 329 332 331 331 330 330 329 329
338 337 337 337 334 330 332 332 330 333 328 328 328 329 334 329 332 331 336 335 337 342 336 338 336 336 337 336 335 336 337 335 333 332 331 329 330 333 333 331 329 329 328 329 329 332 332 330 329 328 330 330 332 332 328 327 325 328 330 329 329 330
336 337 333 330 331 330 329 329 332 329 326 334 326 329 328 328 327 326 327 326 328 331 330 330 331 336 336 337 336 335 335 331 331 332 332 329 330 333 334 333 332 328 327 325 327 331 330 329 326 326 331 330 332 335 329 325 322 323 326 331 332 331
335 335 335 335 340 337 334 325 331 326 326 328 322 326 324 327 327 329 330 330 331 330 334 332 335 333 331 333 333 335 334 333 332 330 331 331 330 333 333 333 332 330 329 328 326 329 329 327 323 323 322 322 325 331 329 324 323 323 323 329 332 331
334 334 335 336 334 332 332 334 337 332 333 322 323 325 323 325 326 324 334 329 333 336 335 329 330 331 333 334 332 334 333 333 332 333 333 331 332 332 332 332 331 329 327 329 327 329 329 329 323 326 324 320 318 318 324 328 327 329 332 332 333 333
333 333 334 335 332 332 333 333 332 328 327 325 321 325 326 328 329 326 325 328 329 331 329 328 327 332 327 328 331 334 331 332 331 332 331 330 330 330 330 330 331 330 328 324 326 325 329 329 327 324 316 317 318 318 315 319 324 329 334 335 333 331
331 333 333 333 332 331 331 331 329 327 324 324 326 326 326 326 326 327 327 329 331 332 331 329 330 327 326 329 329 328 331 331 332 332 331 330 329 329 329 329 329 329 327 326 324 325 326 329 328 329 324 319 317 315 316 320 322 326 332 331 332 332
332 332 331 333 331 331 329 327 327 323 322 322 323 325 322 322 327 325 323 331 326 327 327 328 326 326 325 326 329 332 329 330 330 332 335 331 329 329 328 329 330 329 328 326 326 325 323 327 328 329 328 326 323 317 318 321 320 315 327 330 332 333
331 330 331 331 330 329 328 326 325 323 323 322 323 326 327 327 324 326 328 326 328 332 327 328 329 327 328 329 327 327 329 328 329 327 328 329 326 325 324 325 330 328 328 327 327 323 322 323 326 327 326 327 328 328 328 321 317 319 315 324 328 327
330 330 330 331 328 328 325 324 324 323 323 324 325 323 326 327 329 327 329 327 326 331 329 329 330 329 328 326 328 328 327 326 326 325 324 321 322 323 324 325 326 327 328 328 326 323 324 326 322 322 326 327 327 328 328 326 324 319 316 314 318 326
330 330 330 331 327 327 327 325 325 325 325 325 324 325 324 324 326 328 329 331 328 325 325 327 326 326 326 326 325 324 323 322 319 319 319 318 320 322 323 324 324 324 323 324 326 327 325 324 324 322 322 324 325 326 325 326 324 321 316 315 316 319
329 329 330 330 326 327 327 325 326 327 326 323 323 323 323 324 325 328 326 327 328 327 324 327 325 323 323 321 324 323 321 321 322 320 319 319 320 322 322 321 322 323 324 323 322 321 321 322 321 321 322 322 321 323 322 322 320 319 318 318 314 315
329 329 330 329 327 327 327 324 324 326 326 322 322 323 322 323 324 326 324 325 327 325 326 324 326 325 324 323 323 324 324 321 322 322 321 319 320 318 321 323 321 321 320 321 321 321 320 320 322 317 317 316 315 315 315 313 313 316 315 313 312 312
329 330 330 328 327 327 326 324 326 326 327 323 323 323 321 321 322 323 324 324 326 324 323 325 325 324 325 323 323 323 324 323 323 324 323 323 322 320 320 320 322 322 321 321 321 320 318 317 316 319 317 317 318 319 316 313 314 316 313 312 312 308
329 330 329 328 327 327 326 324 324 325 328 325 324 324 322 323 323 324 324 324 323 322 322 321 324 323 324 326 325 324 323 322 322 322 322 319 318 320 320 320 319 318 318 318 317 318 316 316 316 315 316 317 315 315 314 316 316 315 316 316 314 309
329 330 328 327 327 326 327 325 326 326 328 325 325 327 324 323 324 325 325 325 324 324 321 323 323 324 324 325 325 326 325 323 322 322 323 323 322 322 323 316 319 319 319 320 320 318 318 317 316 317 316 315 314 314 316 317 315 317 315 313 311 310
329 329 328 327 326 326 326 326 326 326 327 326 326 326 326 326 325 326 325 324 326 325 323 322 322 324 323 326 326 325 325 323 323 323 322 322 323 321 321 318 319 320 319 319 317 317 316 316 316 315 315 315 318 313 315 311 315 314 312 312 311 311
329 329 328 326 326 326 326 327 327 326 326 327 325 325 326 325 326 330 326 325 327 326 326 324 323 324 323 326 324 324 323 323 323 322 322 321 321 320 321 319 318 319 317 319 320 319 317 317 317 315 314 315 316 312 312 313 314 313 313 314 314 313
329 329 328 326 326 326 327 327 327 327 326 327 325 325 324 327 325 328 330 327 327 328 328 326 324 324 322 325 324 324 321 322 323 322 322 321 321 321 321 320 319 319 318 319 317 315 317 316 316 315 316 315 315 311 311 315 314 314 314 314 314 313
Wind_Speed
8 9 7 7 7 8 8 10 10 12 12 11 10 11 12 11 10 8 8 7 7 3 2 2 4 4 5 4 4 2 7 7 6 7 8 8 8 9 9 10 8 7 7 8 7 5 5 5 5 4 5 6 8 5 5 5 5 3 9 8 9 8
8 10 8 6 5 6 6 7 7 7 8 8 8 9 8 7 6 4 5 5 3 3 1 1 2 4 4 3 4 5 7 6 6 6 6 7 8 7 8 8 8 8 8 7 8 3 3 5 7 7 6 6 4 4 6 6 2 2 10 7 7 9
10 9 10 7 6 5 8 5 7 7 6 8 7 8 6 6 4 2 4 3 3 2 2 2 2 2 4 7 5 6 7 7 6 6 6 7 8 7 7 7 8 8 7 7 4 4 4 4 4 8 7 5 4 4 7 4 0 2 10 8 7 14
11 11 8 6 5 5 5 6 5 5 5 4 4 4 6 4 3 2 3 1 2 3 3 2 5 7 6 3 4 5 6 7 8 6 6 6 6 7 7 7 8 8 5 4 4 5 5 5 4 4 4 5 6 7 3 3 1 2 8 10 9 14
10 10 8 6 7 6 6 6 4 4 4 3 3 4 5 8 6 5 4 0 3 2 3 4 3 3 2 3 4 4 4 4 4 4 6 3 3 4 5 4 3 4 3 4 6 6 6 1 2 4 5 6 6 6 3 3 3 5 6 8 10 14
11 10 9 6 6 6 6 5 5 5 4 4 4 5 4 4 5 4 3 2 2 4 4 4 1 2 2 2 1 4 4 2 3 3 3 2 3 2 4 3 2 5 5 6 7 4 1 1 2 4 6 7 6 2 2 3 4 8 6 7 9 17
10 8 10 9 7 6 6 5 5 5 5 4 3 4 4 5 5 5 5 5 4 3 3 3 2 1 1 2 2 1 3 3 5 0 3 0 3 2 2 1 3 3 5 6 4 2 2 2 3 3 3 2 3 3 3 4 2 8 6 6 8 16
11 9 6 7 8 8 7 6 6 5 3 4 5 3 2 5 5 6 6 4 5 5 2 2 3 3 2 3 2 2 6 6 2 1 1 1 1 1 2 3 4 5 7 5 6 6 4 4 3 3 3 4 6 5 5 3 4 7 6 7 8 12
12 13 10 4 5 4 5 6 6 6 5 4 3 2 2 2 8 4 5 3 2 2 3 2 2 2 2 1 2 4 5 5 5 2 2 2 3 4 4 4 5 6 6 6 4 3 4 4 3 3 3 5 1 2 2 3 1 7 7 7 6 9
9 8 11 12 9 5 3 3 4 4 5 6 3 2 1 1 2 5 4 3 5 3 3 3 2 2 2 2 1 4 3 3 2 2 3 4 3 3 4 5 8 6 7 5 4 4 4 5 5 3 3 4 1 3 2 4 2 2 8 7 7 7
9 6 7 7 4 7 8 8 4 5 2 2 4 6 5 2 2 4 4 4 4 3 2 3 3 1 3 2 4 3 1 1 2 1 3 2 3 4 4 2 1 3 5 1 3 4 4 3 5 5 4 4 3 5 3 5 3 2 5 7 7 7
8 5 3 10 4 4 2 3 12 7 3 1 3 3 2 1 1 0 6 7 5 6 4 2 3 1 2 3 4 3 5 5 5 5 4 3 2 4 4 4 8 1 2 3 3 5 4 2 3 5 7 6 6 6 4 4 3 4 3 8 7 6
8 3 5 5 6 5 2 4 2 8 10 6 2 3 5 2 1 1 1 3 6 7 6 6 6 2 2 1 3 5 5 4 3 2 2 3 3 4 3 2 2 2 2 2 2 4 6 1 6 6 3 6 5 4 5 4 4 3 4 7 7 7
5 6 4 5 1 3 4 4 2 5 7 11 12 8 4 3 3 2 1 3 3 4 1 3 7 5 2 1 3 3 1 1 1 1 1 2 2 4 2 0 3 2 0 1 2 3 4 3 4 5 4 6 1 1 2 4 6 4 4 5 8 8
5 5 5 4 4 3 3 2 4 6 4 0 6 8 10 9 5 3 4 2 2 4 4 3 1 4 8 8 6 4 1 1 1 3 4 3 2 2 2 1 1 1 0 1 3 2 6 5 3 5 2 2 5 4 3 4 2 3 4 3 4 8
6 6 7 5 5 5 3 4 3 4 3 2 1 7 4 7 7 7 3 1 6 6 3 6 3 5 3 3 3 3 4 4 3 5 5 5 3 3 1 2 2 2 2 2 4 4 5 4 4 4 5 5 4 5 5 4 2 3 3 5 3 3
6 6 6 6 4 3 3 4 5 2 3 3 1 2 5 6 5 4 3 3 3 3 2 3 7 6 1 3 1 2 3 5 3 2 3 4 2 1 3 1 1 3 1 1 7 2 2 3 4 2 6 7 7 5 5 3 5 4 5 4 3 6
6 7 5 5 4 2 4 2 3 4 4 3 4 6 5 3 4 6 4 3 4 3 1 0 1 5 5 3 1 1 3 3 2 2 2 0 1 0 1 1 1 2 4 2 1 5 6 6 3 1 3 3 7 5 6 7 6 6 5 4 3 2
7 6 5 5 3 6 3 4 3 3 2 2 4 3 4 5 5 5 4 3 3 4 3 2 2 3 4 3 3 2 3 3 4 3 2 2 2 2 2 1 1 1 2 2 4 2 3 6 7 9 7 1 4 4 5 6 7 6 6 8 7 5
7 6 5 4 4 3 3 3 2 2 3 5 5 3 3 4 3 4 2 3 1 2 4 5 5 4 3 4 4 3 1 1 2 3 5 1 1 1 2 1 0 1 1 1 1 1 2 4 1 5 4 2 2 1 3 4 7 8 5 5 6 6
6 6 5 4 3 3 3 3 2 4 4 2 4 3 6 6 5 5 6 6 6 5 5 6 5 2 4 5 4 4 5 4 1 4 1 3 2 2 2 3 3 3 2 1 1 1 4 5 3 2 3 4 1 1 1 3 6 7 7 4 3 4
6 6 5 4 2 3 3 5 2 3 3 3 3 3 5 4 5 4 4 4 3 3 2 4 2 2 4 3 3 5 5 6 5 4 2 1 3 4 3 2 2 2 3 1 1 3 2 3 1 3 1 1 0 1 2 5 5 6 7 4 2 3
6 5 5 4 4 4 4 4 1 3 2 7 6 6 6 5 4 5 2 3 2 2 2 3 3 1 1 2 3 2 3 6 6 3 2 2 2 2 1 1 2 2 2 2 3 2 3 4 2 2 1 0 0 1 0 1 4 6 6 4 2 2
7 6 5 4 6 6 5 6 7 8 7 7 5 5 5 3 3 4 5 4 3 3 4 4 5 1 4 2 1 1 5 4 6 4 3 2 1 2 3 3 1 2 1 2 2 1 0 0 0 2 1 1 0 0 0 1 0 1 0 1 0 1
7 7 6 5 8 6 6 6 7 6 6 5 4 4 3 3 3 3 4 3 2 3 2 2 3 4 4 3 4 4 4 3 3 4 5 4 4 4 6 5 3 1 3 0 2 1 1 1 2 1 1 1 1 1 1 1 1 0 1 1 2 1
6 7 7 7 8 7 6 6 5 6 4 4 4 4 5 3 2 3 3 2 4 3 4 4 4 4 4 4 3 2 4 3 4 2 2 2 3 4 5 5 4 4 3 2 3 1 1 0 0 0 1 2 1 0 2 1 1 1 2 1 0 1
7 7 7 7 8 7 6 6 6 4 4 4 4 4 4 4 5 4 4 4 3 2 3 3 3 3 3 3 3 4 3 3 3 4 3 3 6 5 4 5 5 5 4 5 3 1 2 2 2 0 0 3 2 0 1 1 1 1 1 0 1 2
7 8 7 7 7 6 6 6 5 5 4 4 5 5 4 4 4 4 3 3 4 2 3 3 2 2 3 4 3 3 5 6 6 3 5 7 5 5 4 4 5 3 4 4 5 5 2 2 2 0 1 1 1 1 1 2 2 2 2 3 2 2
9 9 8 9 8 6 6 6 5 4 4 5 6 5 4 4 4 3 2 2 4 4 5 4 3 3 3 3 3 4 5 5 6 6 6 6 5 5 5 4 5 5 4 4 3 2 3 3 4 3 3 3 3 2 0 1 4 2 2 1 3 2
10 9 9 9 8 7 7 6 4 4 4 7 5 5 4 5 4 3 3 3 3 4 4 2 4 4 4 4 3 4 4 4 3 4 3 3 4 4 3 4 4 5 4 5 3 5 4 3 4 3 2 1 0 1 3 2 1 1 2 5 3 3
11 9 10 10 9 8 7 6 5 5 6 8 6 5 7 5 4 3 3 3 2 3 3 4 3 3 4 3 4 3 3 3 3 4 5 4 4 4 3 3 4 4 4 4 4 4 4 5 3 4 4 5 4 3 2 3 4 2 2 2 4 4
11 11 10 10 9 9 8 7 5 6 5 7 6 5 7 6 5 4 4 3 3 4 4 3 3 3 2 3 3 2 2 3 3 3 3 3 3 3 4 4 4 3 4 5 4 5 5 5 6 3 4 4 2 4 6 5 4 4 4 3 3 4
12 12 11 11 10 9 8 8 7 6 4 7 6 5 5 5 5 5 4 4 5 4 4 4 2 3 2 2 2 1 2 3 3 3 3 3 4 4 4 4 4 4 4 4 4 4 4 4 4 4 4 3 5 6 5 4 4 2 1 2 3 3
12 12 11 11 11 10 8 8 6 6 5 6 5 5 5 5 5 4 5 4 4 4 5 3 3 3 3 3 2 1 2 3 3 3 2 3 2 1 2 4 3 4 3 3 4 4 4 4 4 4 4 5 3 5 2 4 2 2 2 4 4 3
10 11 12 11 10 10 8 8 7 6 5 5 5 4 6 5 4 4 5 5 3 5 5 5 5 4 4 2 3 2 2 2 2 2 2 1 2 1 3 4 4 3 4 3 4 4 3 3 3 3 3 3 2 5 5 5 3 5 4 5 3 3
9 10 10 10 10 10 8 7 7 7 6 6 5 5 4 5 4 3 4 4 3 4 5 5 5 5 4 3 4 3 3 2 2 2 1 1 2 2 1 4 3 3 3 3 3 4 4 3 3 3 2 3 3 4 4 2 3 5 4 3 4 4
9 9 9 9 8 9 7 7 7 7 7 6 7 5 5 5 7 3 3 4 3 3 4 5 5 5 4 3 4 3 3 3 2 1 1 1 1 2 1 2 3 2 3 3 4 4 3 3 3 3 2 2 2 5 3 3 4 3 2 2 3 3
Wind_Direction
159 154 156 153 141 136 127 118 111 110 109 116 120 117 109 110 108 115 122 124 135 134 134 164 152 186 176 183 228 202 161 159 155 167 165 167 165 168 173 171 168 168 167 166 158 172 177 162 188 221 236 262 277 286 269 270 273 121 112 114 118 124
163 159 160 150 158 147 141 145 138 130 131 123 129 126 125 129 130 139 132 139 144 113 137 187 180 205 148 185 223 173 164 164 169 176 174 170 167 171 177 176 174 178 175 173 169 182 201 196 194 204 221 242 268 264 267 270 276 338 101 108 114 130
154 154 156 157 163 164 149 160 156 153 146 160 160 150 143 140 121 138 175 164 143 114 158 194 163 207 183 183 179 172 167 175 177 176 183 170 168 171 178 175 183 188 183 181 184 238 207 206 199 208 210 223 239 254 256 257 202 325 106 110 119 135
152 151 152 144 147 150 158 172 164 157 161 159 152 170 142 127 106 237 232 195 113 145 182 208 194 199 198 146 149 176 174 175 170 170 179 169 174 176 181 184 189 189 191 207 231 228 236 206 185 184 196 217 231 240 209 255 277 120 122 122 128 137
151 150 149 144 145 148 148 160 158 166 166 161 180 173 170 155 168 205 238 119 150 144 195 211 191 168 173 164 161 163 170 179 162 174 173 178 191 182 189 192 189 196 213 223 233 229 230 134 173 190 198 217 227 230 160 234 253 68 115 124 132 135
149 151 147 150 150 136 148 142 146 153 150 171 186 180 170 163 113 163 164 216 154 179 198 190 126 176 156 94 223 164 159 175 159 147 179 207 166 172 213 211 204 196 222 224 232 233 242 269 252 230 201 214 238 166 203 204 205 105 116 128 139 134
149 151 153 155 148 152 154 149 145 149 158 168 182 178 185 112 128 126 179 177 175 217 200 97 68 323 226 139 224 199 87 48 28 57 197 294 181 135 197 347 249 255 237 233 233 217 227 246 252 290 295 227 192 212 213 219 153 118 123 130 138 137
160 149 154 153 154 156 150 149 135 141 163 161 183 152 103 139 133 168 180 182 179 179 141 122 164 184 212 199 179 116 77 79 231 217 81 192 71 338 221 214 224 243 265 223 224 205 189 209 226 215 255 281 181 211 203 187 171 113 128 134 141 144
147 158 149 156 152 137 140 140 140 145 153 163 150 164 145 140 145 180 151 162 245 156 127 167 179 174 145 165 83 73 123 176 192 140 206 141 195 187 214 225 224 214 237 247 227 228 175 207 204 241 260 280 255 230 105 44 334 125 127 135 138 153
154 142 143 162 151 143 141 140 135 128 133 141 156 77 121 175 157 151 149 184 194 188 153 181 183 157 142 134 73 70 86 163 183 151 212 181 177 202 220 220 218 214 224 221 231 218 223 186 179 228 254 262 226 283 173 149 192 202 133 141 141 150
102 100 156 123 129 142 153 160 150 108 63 130 156 156 171 181 238 146 135 183 230 188 182 173 134 119 143 137 79 89 120 139 148 198 220 201 196 208 230 261 311 241 304 330 326 305 198 241 178 184 219 235 227 205 225 157 171 173 144 135 139 153
86 41 17 107 94 121 174 145 139 132 159 312 335 353 87 93 212 114 139 192 195 178 185 130 95 65 140 114 115 136 212 195 173 186 209 201 221 237 224 197 215 132 346 4 331 325 306 294 287 181 196 209 226 172 211 156 185 167 159 130 141 156
95 70 62 63 86 90 42 101 90 135 135 163 51 323 318 300 291 290 345 174 172 196 171 153 131 148 49 107 145 171 200 240 184 186 174 218 242 252 182 224 98 68 53 350 352 319 311 10 303 298 269 208 196 215 189 162 180 177 161 145 154 157
111 101 76 80 28 84 96 82 166 116 133 153 156 175 195 224 276 312 20 324 351 353 98 85 130 140 271 60 260 237 224 231 314 177 222 242 253 254 116 261 86 53 164 18 295 292 299 269 226 266 293 328 242 204 166 185 165 182 178 172 171 159
104 88 92 92 76 100 32 15 70 71 70 285 142 141 162 164 213 161 198 170 116 219 259 104 260 143 197 184 173 182 176 68 323 43 331 293 283 282 131 196 107 146 170 196 265 314 288 277 253 240 272 332 331 348 347 346 2 186 184 195 179 162
90 89 74 77 62 53 59 67 81 78 91 335 248 129 144 140 147 151 168 136 182 188 164 200 244 146 275 318 186 160 142 138 196 170 201 266 271 280 251 156 150 204 165 236 228 197 255 283 296 340 15 354 345 345 337 331 318 335 241 181 191 223
104 102 102 92 83 70 87 68 55 68 165 204 356 118 135 114 123 106 154 148 16 12 67 243 186 147 214 257 130 133 128 132 184 222 169 182 227 324 2 2 176 227 93 351 307 306 205 260 317 350 44 4 336 349 329 327 332 321 334 339 208 192
107 100 103 89 112 148 89 94 79 66 16 47 39 32 36 90 112 129 116 95 137 179 212 308 36 107 123 254 263 342 90 137 151 163 155 262 273 9 71 35 347 48 85 169 304 13 355 331 315 314 85 7 343 351 350 335 347 337 325 293 313 306
112 113 105 118 88 73 53 63 119 114 153 128 86 37 65 58 54 56 79 103 105 118 157 159 108 102 129 133 120 184 205 171 181 169 117 163 223 191 130 75 66 20 48 63 27 34 4 32 2 355 356 26 299 351 341 2 335 340 341 340 337 334
123 121 117 115 137 128 147 132 119 120 53 42 64 70 66 96 66 55 80 105 137 145 152 169 157 145 148 154 150 163 116 89 289 139 146 160 277 187 157 149 158 50 342 61 152 255 106 94 258 262 252 296 244 280 349 4 341 326 336 332 331 338
134 132 142 147 164 159 136 114 68 94 109 89 84 90 66 44 47 59 23 28 26 33 31 29 8 92 163 167 146 147 130 129 282 298 82 176 192 259 183 167 150 116 219 227 153 176 137 156 174 250 215 242 234 84 294 339 316 321 312 304 313 333
138 148 147 156 137 104 120 123 174 132 147 102 132 132 92 87 79 44 48 39 40 22 36 50 30 23 4 349 131 147 150 141 152 242 229 187 215 218 200 179 164 166 177 205 223 146 130 106 188 200 156 298 263 154 161 169 247 271 299 293 321 343
146 148 151 128 115 95 63 55 51 55 71 98 64 51 72 79 99 114 124 103 58 1 11 130 144 99 214 53 41 70 122 150 157 153 168 152 237 215 227 166 167 182 145 192 221 224 180 164 153 108 70 92 312 68 329 227 200 219 232 284 19 339
151 146 137 135 117 96 85 77 63 60 56 76 84 73 81 90 96 83 65 54 60 30 18 19 1 80 87 69 299 114 83 64 97 134 108 103 34 48 41 3 285 204 182 192 222 293 319 149 137 122 163 179 134 65 49 124 132 269 7 93 282 21
153 143 139 129 111 106 105 95 83 81 79 83 96 117 122 91 88 98 92 84 63 59 66 41 30 26 41 30 36 30 91 100 107 122 157 167 158 178 149 170 211 196 218 173 212 126 238 206 188 273 54 104 115 142 180 152 347 359 1 14 42 27
152 139 143 129 124 129 131 125 120 113 116 125 132 151 122 143 144 86 102 85 62 67 47 23 43 41 35 19 357 44 31 144 121 117 102 110 133 145 137 151 144 150 159 90 263 125 113 22 63 331 25 289 320 328 130 63 54 321 296 26 92 64
151 142 143 132 135 142 130 131 136 139 150 153 147 104 87 75 88 104 82 90 109 79 77 64 50 52 43 32 33 7 31 21 98 118 121 78 58 46 73 94 148 162 140 144 136 170 124 146 102 254 213 284 287 351 56 109 98 335 325 335 224 245
151 142 145 140 142 144 137 140 151 158 161 149 115 112 112 99 96 94 114 122 122 104 90 92 73 78 90 57 26 32 19 20 2 47 79 62 54 55 48 51 45 60 101 114 121 128 149 87 77 8 22 314 317 334 79 89 101 122 147 288 294 259
150 144 148 145 147 149 139 148 156 152 160 114 115 122 121 124 114 107 117 108 65 82 53 42 71 62 65 65 64 46 33 33 25 23 58 58 53 49 53 44 40 44 53 53 54 109 126 153 149 139 206 234 234 203 120 146 122 153 157 170 263 242
152 148 150 148 149 152 142 150 160 155 147 123 134 145 134 125 121 153 114 84 113 101 116 95 42 45 52 55 41 57 59 39 36 53 77 104 107 83 66 52 47 43 34 61 46 36 39 56 65 39 2 13 347 219 156 180 132 146 273 234 255 285
155 150 152 152 154 157 146 160 165 164 147 140 151 145 132 137 140 142 131 130 131 109 97 91 104 55 58 63 47 39 45 66 50 26 41 56 70 97 106 105 97 70 56 60 45 43 43 29 47 57 24 28 43 41 66 33 38 14 343 11 351 333
157 153 154 154 157 159 152 162 169 165 151 145 153 147 143 149 148 149 138 156 120 119 103 107 106 107 80 59 61 75 68 65 39 36 46 46 81 77 70 73 63 71 66 49 43 60 43 33 16 41 45 7 35 46 51 42 13 18 27 6 341 321
163 154 157 159 160 161 158 165 167 165 154 147 152 146 146 141 157 145 152 153 148 146 132 136 142 115 100 126 95 43 57 76 65 39 44 71 45 48 72 75 84 78 69 72 78 72 67 49 45 34 345 21 28 44 52 43 33 357 347 334 325 318
167 155 158 162 161 163 162 163 164 156 153 142 150 150 146 155 160 150 157 155 164 144 144 146 133 124 142 135 148 109 63 68 82 87 75 41 32 29 118 104 76 90 94 80 75 78 78 75 50 39 9 33 14 57 31 63 1 325 7 19 7 13
168 159 161 162 160 163 163 163 161 153 155 146 152 159 150 155 163 161 161 152 185 144 147 150 148 131 147 167 116 125 114 111 103 86 87 117 118 84 44 75 78 71 73 70 82 85 70 70 69 55 43 1 339 67 23 23 2 34 22 33 10 6
174 162 163 161 163 164 162 163 161 154 166 152 163 159 163 149 162 176 158 152 185 148 147 145 146 142 151 169 139 137 130 132 137 132 118 120 181 100 50 100 110 102 110 142 147 123 125 100 80 83 58 345 35 74 49 9 31 39 35 7 8 357
181 162 163 160 163 162 161 162 164 159 164 166 166 164 178 156 158 178 155 147 176 161 144 139 144 141 163 173 143 156 158 145 141 152 147 184 71 98 183 110 105 118 93 62 67 64 70 104 89 62 28 22 14 80 39 6 60 37 39 18 3 347